CAPE
188 271 93 113 115 57 24 49 23 21 7 17 0 2 15 4 6 9 13 44 46 111 209 226 493 976 1307 1448 1509 1284 1188 1437 1695 1531 1564 1725 1565 1592 1557 1508 1527 1581 1480 1498 1371 1323 1387 1256 1068
334 259 60 1 43 25 34 21 28 27 32 11 4 8 16 9 15 15 27 15 120 250 311 381 667 1014 1327 1404 1299 1338 1352 1636 1696 1632 1557 1448 1676 1606 1518 1480 1715 1417 1470 1413 1422 1449 1310 1147 808
368 165 0 17 28 40 63 29 45 43 35 13 13 5 9 9 23 21 19 31 45 161 285 639 763 1134 1231 1369 1439 1456 1406 1550 1650 1661 1544 1595 1589 1501 1480 1523 1526 1510 1439 1489 1593 1493 1356 1187 1033
459 37 38 114 56 92 54 100 65 64 40 11 0 5 3 16 8 22 78 40 30 89 241 1050 1277 1275 1242 1450 1524 1466 1449 1686 1736 1642 1593 1520 1526 1485 1600 1665 1578 1780 1557 1291 1412 1481 1230 1110 938
417 268 56 83 50 94 89 154 103 60 36 29 3 0 7 90 49 78 107 69 77 169 450 813 1260 1198 1255 1634 1655 1486 1603 1601 1587 1660 1622 1514 1491 1530 1624 1711 1587 1706 1768 1499 1280 1208 1193 962 805
130 74 54 91 50 32 229 127 98 77 70 28 7 2 39 119 46 89 120 169 180 289 457 658 1126 1225 1333 1542 1725 1619 1537 1383 1486 1708 1722 1610 1528 1484 1556 1616 1691 1808 1719 1630 1105 1014 873 906 991
85 61 58 34 40 122 223 166 175 124 47 15 0 12 13 83 61 98 154 249 255 450 559 644 699 1086 1293 1475 1563 1532 1549 1556 1573 1599 1756 1702 1506 1408 1474 1369 1424 1563 1578 1505 1057 804 821 835 965
14 31 73 58 76 198 349 248 183 76 33 0 25 4 1 88 65 82 132 268 371 492 757 823 781 849 954 1087 1301 1342 1599 1507 1710 1639 1555 1447 1443 1524 1600 1516 1145 1440 1295 1149 985 849 921 1037 1232
111 97 53 42 44 211 449 321 135 84 39 40 58 36 40 91 70 95 125 204 433 513 497 639 656 1006 1106 1127 1056 1317 1502 1504 1690 1601 1431 1122 1595 1576 1603 1179 1342 1247 1062 866 868 976 801 1100 1289
447 203 81 44 6 113 520 453 234 118 49 41 104 57 82 94 108 94 121 159 203 319 408 493 447 560 896 746 1103 1164 1019 959 1323 1498 1676 1546 1603 1491 1353 1232 1220 1116 1097 1187 855 816 512 954 1370
441 197 63 7 7 182 466 498 324 190 62 83 108 79 108 116 122 96 112 132 125 160 193 296 467 693 687 626 838 1015 752 925 1235 1649 1399 1214 1350 1381 1409 1538 1512 1631 1206 1091 1387 1359 1117 1442 1435
39 166 180 86 7 73 399 554 411 214 84 63 162 117 137 158 149 113 99 108 118 224 264 363 477 717 773 744 699 722 601 682 798 904 1010 811 764 1117 1420 1581 1590 1601 1621 932 1002 1365 1309 1516 1674
17 76 19 22 0 0 310 431 522 343 180 185 267 147 171 182 157 77 60 75 120 224 310 578 593 704 827 883 781 666 717 413 477 761 595 443 653 1226 1548 1385 1515 1629 1435 1115 951 1086 1416 1424 1514
0 0 0 0 0 39 131 309 473 512 279 252 196 140 147 130 139 135 174 140 158 255 318 559 693 744 914 994 1137 866 679 513 595 427 247 217 359 1234 1439 1483 1560 1747 1733 1593 1409 682 677 473 1112
0 0 0 0 0 0 210 318 281 456 375 321 184 173 176 148 156 218 304 371 305 263 443 588 669 759 933 1013 970 855 427 373 179 164 209 146 328 1013 1341 1425 1466 1642 1607 1118 916 1128 1026 771 345
0 0 0 0 0 3 115 15 216 495 444 342 170 202 251 231 250 294 336 410 364 234 329 541 523 626 802 786 739 485 269 143 112 98 216 319 588 1184 1401 1451 1533 1623 1191 851 1293 1227 771 224 0
0 0 0 0 0 13 95 3 26 500 515 426 180 162 189 228 321 364 373 473 553 528 394 405 521 445 581 696 704 429 136 29 49 76 44 408 922 1206 1335 1356 1508 1460 1358 1113 1430 1160 878 240 3
0 0 0 0 0 0 24 19 2 408 558 515 327 188 151 168 182 292 400 485 619 737 724 508 542 620 677 574 568 372 84 1 62 203 531 840 1222 1344 1431 1354 1206 1372 1347 1030 1293 988 71 0 0
0 0 0 0 0 0 0 0 0 60 359 612 485 244 156 116 180 307 421 503 615 746 810 659 592 664 650 492 217 102 0 48 430 927 1148 1220 1350 1393 1523 1473 1051 1517 1298 1427 1207 734 254 0 0
0 0 0 0 0 0 0 0 0 1 67 329 574 428 307 185 221 346 427 537 633 729 788 817 751 687 497 551 438 270 207 409 790 1173 1139 1171 1271 1351 1461 1442 1463 1495 1379 1232 1145 605 234 0 0
0 0 0 0 0 0 0 0 0 8 175 321 527 546 483 398 303 351 437 557 635 725 739 771 731 770 536 571 594 609 689 817 795 907 1195 1103 1200 1377 1338 1191 1043 1511 1296 1251 1336 775 317 78 0
0 0 0 0 0 0 0 0 0 0 0 201 380 539 556 543 472 458 435 604 642 698 767 749 764 796 725 705 541 394 221 525 672 746 1109 1088 1184 1315 1469 1424 1347 1542 1407 1283 1148 645 270 2 0
0 0 0 0 0 0 0 0 0 0 0 50 308 406 487 528 491 504 532 509 588 664 678 749 663 696 704 739 605 456 423 633 861 959 1069 1204 1177 1276 1403 1579 1517 1486 1423 1394 1136 501 184 0 0
0 0 0 0 0 0 0 0 0 0 0 0 237 338 327 453 439 556 606 616 579 576 606 596 634 624 679 700 636 642 644 664 827 911 892 1039 1124 1072 1374 1652 1709 1571 1467 1281 983 733 376 8 0
0 0 0 0 0 0 0 0 0 0 0 0 0 176 285 246 242 364 452 478 676 597 606 593 554 562 679 674 720 692 655 839 865 844 840 870 808 941 1284 1468 1542 1471 1417 1318 999 651 326 137 0
0 0 0 0 0 0 0 0 0 0 0 0 0 5 192 321 231 193 293 274 229 532 587 626 521 518 623 677 713 754 781 878 940 964 870 868 861 870 1115 1372 1432 1431 1375 1267 887 610 363 234 42
0 0 0 0 0 0 0 0 0 0 0 0 0 0 25 197 314 304 282 260 185 186 440 565 525 485 598 637 688 730 803 787 817 920 1005 893 1038 1069 1073 1186 1255 1562 1345 1201 890 660 419 165 38
0 0 0 0 0 0 0 0 0 0 0 0 0 0 0 4 90 243 379 376 289 196 285 459 490 472 503 594 665 728 777 821 856 982 922 941 1024 1085 1055 1072 1362 1491 1307 1262 937 674 449 151 54
0 0 0 0 0 0 0 0 0 0 0 0 0 0 0 0 0 5 199 352 393 321 179 371 452 458 548 630 683 728 809 908 936 965 968 1032 1050 1102 1200 1177 1240 1389 1282 1249 1070 688 449 231 139
0 0 0 0 0 0 0 0 0 0 0 0 0 0 0 0 0 0 0 95 194 329 265 267 469 510 537 582 688 761 859 954 944 911 995 1067 1007 1127 1199 1215 1177 1293 1251 1217 1155 888 540 415 275
CIN
-83 -30 -59 -66 -26 -30 -20 -12 -29 -32 -48 -40 -0 -51 -48 -108 -88 -38 -25 -5 -16 -0 -3 -6 -4 -0 -0 -0 -0 -8 -13 -5 -0 -2 -2 -0 -4 -0 -0 -0 -0 -1 -0 -0 -0 -0 -0 -0 -11
-54 -54 -103 -53 -48 -12 -14 -34 -24 -30 -46 -42 -48 -59 -60 -95 -171 -94 -41 -11 -0 -0 -0 -1 -1 -0 -0 -0 -6 -4 -3 -0 -0 -1 -10 -16 -1 -0 -0 -0 -0 -1 -1 -1 -1 -0 -0 -9 -18
-70 -118 -0 -132 -54 -19 -15 -21 -35 -46 -53 -44 -48 -35 -52 -95 -112 -99 -41 -31 -17 -20 -0 -1 -2 -0 -0 -1 -0 -1 -6 -2 -4 -9 -9 -1 -0 -0 -0 -0 -0 -1 -0 -1 -0 -0 -2 -7 -11
-67 -256 -218 -61 -29 -41 -39 -39 -40 -46 -57 -75 -1 -50 -2 -98 -13 -91 -34 -37 -37 -23 -8 -0 -0 -0 -0 -0 -0 -5 -10 -4 -8 -8 -1 -0 -0 -0 -0 -0 -4 -0 -0 -0 -0 -0 -16 -18 -21
-76 -123 -114 -47 -50 -52 -53 -60 -60 -54 -75 -61 -26 -0 -18 -117 -66 -93 -44 -39 -48 -33 -0 -0 -0 -0 -0 -0 -0 -10 -6 -11 -9 -0 -0 -0 -0 -0 -0 -0 -3 -2 -0 -0 -5 -13 -16 -21 -22
-190 -225 -67 -20 -34 -70 -65 -86 -62 -55 -99 -114 -142 -0 -108 -86 -84 -80 -80 -32 -41 -28 -1 -0 -0 -0 -0 -0 -1 -4 -13 -19 -10 -0 -0 -0 -0 -0 -0 -0 -0 -1 -0 -1 -29 -31 -35 -30 -19
-199 -158 -67 -69 -44 -45 -63 -85 -47 -74 -98 -119 -0 -107 -101 -109 -110 -128 -86 -27 -26 -13 -4 -0 -4 -0 -0 -1 -2 -13 -10 -10 -6 -3 -0 -0 -2 -4 -2 -6 -9 -3 -1 -12 -38 -49 -42 -40 -22
-282 -198 -95 -99 -48 -31 -85 -72 -87 -93 -107 -0 -163 -63 -11 -193 -217 -101 -116 -40 -9 -8 -0 -2 -10 -6 -8 -12 -14 -19 -4 -15 -3 -3 -7 -12 -10 -6 -6 -9 -21 -14 -16 -27 -39 -40 -33 -32 -22
-268 -139 -59 -61 -57 -47 -99 -89 -131 -128 -153 -154 -207 -174 -195 -225 -229 -196 -127 -63 -6 -6 -14 -11 -20 -8 -8 -12 -17 -13 -10 -15 -8 -8 -17 -28 -8 -10 -7 -27 -21 -18 -16 -27 -37 -34 -38 -24 -23
-138 -104 -69 -114 -40 -68 -72 -77 -132 -137 -144 -122 -143 -267 -260 -248 -215 -212 -174 -132 -96 -50 -32 -27 -34 -40 -23 -32 -14 -16 -24 -23 -13 -8 -10 -12 -15 -29 -27 -29 -32 -15 -16 -13 -27 -33 -40 -27 -6
-180 -82 -120 -76 -94 -89 -64 -65 -111 -119 -137 -112 -147 -265 -240 -217 -177 -185 -158 -158 -181 -129 -89 -65 -50 -35 -38 -44 -31 -22 -43 -34 -24 -15 -27 -38 -31 -32 -25 -20 -15 -12 -16 -11 -10 -18 -10 -11 -13
-264 -164 -115 -78 -95 -87 -66 -64 -101 -119 -104 -117 -167 -244 -265 -216 -201 -182 -167 -146 -157 -118 -103 -82 -63 -40 -32 -34 -43 -44 -57 -56 -51 -49 -61 -63 -49 -39 -31 -17 -18 -20 -15 -8 -7 -12 -17 -9 -11
-31 -171 -201 -159 -0 -0 -79 -68 -56 -93 -132 -179 -196 -255 -240 -225 -203 -185 -195 -186 -172 -135 -112 -68 -67 -50 -34 -33 -37 -55 -54 -76 -64 -61 -71 -79 -56 -33 -28 -37 -25 -20 -25 -8 -10 -10 -12 -12 -6
-0 -0 -0 -0 -0 -104 -90 -72 -96 -63 -191 -200 -230 -274 -219 -206 -215 -178 -178 -195 -189 -150 -135 -83 -70 -59 -35 -31 -30 -56 -64 -72 -72 -77 -90 -107 -76 -37 -25 -28 -20 -10 -17 -16 -11 -8 -16 -10 -15
-0 -0 -0 -0 -0 -0 -94 -128 -114 -142 -172 -180 -233 -248 -237 -208 -172 -164 -166 -162 -169 -176 -121 -106 -86 -65 -45 -38 -46 -51 -87 -83 -102 -96 -101 -97 -83 -40 -34 -25 -13 -12 -19 -10 -9 -12 -15 -19 -31
-0 -0 -0 -0 -0 -35 -110 -33 -68 -148 -173 -161 -243 -257 -246 -201 -181 -141 -134 -140 -161 -180 -178 -125 -116 -102 -75 -69 -73 -91 -98 -111 -116 -113 -85 -87 -69 -47 -34 -23 -11 -10 -13 -8 -28 -19 -17 -28 -0
-0 -0 -0 -0 -0 -30 -130 -56 -63 -145 -164 -166 -234 -263 -271 -228 -186 -152 -133 -130 -126 -170 -190 -172 -148 -157 -126 -94 -79 -104 -124 -142 -121 -102 -136 -74 -65 -52 -37 -23 -15 -25 -13 -10 -8 -9 -13 -27 -26
-0 -0 -0 -0 -0 -0 -143 -111 -107 -131 -143 -148 -209 -231 -241 -251 -228 -194 -161 -140 -128 -139 -152 -161 -156 -139 -120 -115 -104 -110 -145 -5 -138 -89 -67 -64 -51 -50 -38 -37 -33 -23 -14 -11 -12 -14 -52 -0 -0
-0 -0 -0 -0 -0 -0 -0 -0 -0 -182 -165 -156 -184 -205 -223 -247 -180 -164 -159 -137 -124 -126 -139 -178 -182 -168 -131 -149 -183 -187 -0 -160 -76 -57 -55 -62 -56 -50 -44 -32 -41 -20 -12 -7 -12 -15 -28 -0 -0
-0 -0 -0 -0 -0 -0 -0 -0 -0 -51 -194 -174 -186 -193 -201 -187 -173 -173 -178 -162 -154 -168 -188 -178 -194 -186 -210 -176 -173 -158 -137 -86 -45 -36 -46 -46 -42 -40 -31 -34 -27 -25 -12 -15 -16 -25 -32 -0 -0
-0 -0 -0 -0 -0 -0 -0 -0 -0 -117 -205 -211 -197 -191 -176 -171 -197 -192 -184 -190 -185 -185 -218 -227 -229 -208 -226 -180 -145 -121 -86 -69 -56 -36 -29 -31 -33 -34 -41 -52 -53 -33 -24 -10 -12 -28 -47 -52 -0
-0 -0 -0 -0 -0 -0 -0 -0 -0 -0 -0 -217 -235 -229 -178 -168 -215 -154 -183 -180 -189 -229 -235 -232 -212 -203 -191 -178 -168 -188 -180 -111 -88 -60 -24 -25 -23 -20 -32 -39 -53 -33 -24 -21 -20 -66 -86 -108 -0
-0 -0 -0 -0 -0 -0 -0 -0 -0 -0 -0 -179 -223 -230 -219 -176 -199 -212 -204 -215 -233 -222 -241 -261 -257 -225 -203 -192 -184 -177 -158 -123 -63 -48 -45 -29 -23 -22 -21 -35 -48 -37 -27 -25 -39 -103 -134 -0 -0
-0 -0 -0 -0 -0 -0 -0 -0 -0 -0 -0 -0 -182 -224 -240 -207 -193 -199 -211 -202 -187 -212 -226 -249 -278 -254 -227 -210 -200 -166 -139 -128 -84 -79 -57 -39 -26 -24 -28 -32 -37 -38 -33 -31 -57 -91 -126 -37 -0
-0 -0 -0 -0 -0 -0 -0 -0 -0 -0 -0 -0 -2 -171 -207 -268 -236 -215 -213 -231 -235 -265 -268 -275 -320 -297 -266 -243 -220 -200 -182 -137 -109 -81 -60 -46 -56 -38 -34 -39 -41 -40 -42 -35 -65 -109 -148 -167 -0
-0 -0 -0 -0 -0 -0 -0 -0 -0 -0 -0 -0 -0 -38 -156 -241 -284 -261 -242 -256 -328 -298 -316 -321 -351 -322 -309 -271 -246 -238 -199 -156 -130 -99 -57 -53 -63 -53 -50 -45 -43 -50 -51 -53 -95 -118 -153 -178 -205
-0 -0 -0 -0 -0 -0 -0 -0 -0 -0 -0 -0 -0 -0 -91 -209 -245 -284 -280 -270 -291 -375 -382 -356 -387 -374 -349 -312 -277 -255 -241 -209 -168 -135 -108 -84 -56 -38 -55 -57 -47 -49 -59 -73 -113 -128 -172 -220 -246
-0 -0 -0 -0 -0 -0 -0 -0 -0 -0 -0 -0 -0 -0 -0 -110 -241 -270 -268 -301 -310 -365 -405 -412 -425 -407 -378 -358 -313 -287 -273 -257 -212 -167 -143 -116 -90 -67 -67 -71 -59 -49 -73 -80 -129 -155 -198 -259 -288
-0 -0 -0 -0 -0 -0 -0 -0 -0 -0 -0 -0 -0 -0 -0 -0 -0 -90 -285 -337 -379 -380 -456 -473 -488 -451 -455 -412 -372 -330 -313 -288 -245 -201 -171 -146 -128 -98 -74 -91 -78 -75 -89 -96 -124 -177 -206 -254 -286
-0 -0 -0 -0 -0 -0 -0 -0 -0 -0 -0 -0 -0 -0 -0 -0 -0 -0 -0 -332 -354 -397 -415 -490 -506 -522 -500 -479 -428 -400 -368 -342 -301 -268 -225 -160 -169 -130 -109 -103 -114 -105 -116 -118 -131 -160 -216 -232 -277
Wind_Speed
21 21 21 19 18 19 20 18 20 24 19 15 21 22 21 17 18 22 14 8 30 31 32 30 32 32 33 29 28 30 33 32 31 30 30 29 27 26 22 16 12 10 14 7 9 16 20 22 23
22 21 18 19 17 16 18 17 19 14 18 21 12 18 18 18 16 26 19 21 30 30 31 30 32 31 29 26 30 33 32 31 30 30 29 27 25 23 21 18 12 12 8 6 6 6 19 17 21
22 18 18 16 15 15 17 15 15 11 14 21 17 11 17 19 16 27 18 30 31 30 29 29 28 28 27 30 33 32 31 31 30 29 27 25 23 22 20 16 13 12 5 6 11 12 18 22 22
18 17 17 18 13 13 12 16 15 15 9 14 9 9 14 15 21 24 30 33 30 28 30 26 25 28 30 33 32 31 30 30 29 27 25 23 22 22 19 16 14 8 6 6 7 22 21 21 20
16 18 13 13 11 13 14 16 17 17 13 12 18 8 7 5 2 27 30 32 29 29 28 28 27 31 33 32 30 29 29 29 27 26 24 22 21 20 17 15 12 8 6 12 17 18 18 18 18
16 18 12 12 13 13 12 15 14 13 11 8 8 13 6 5 25 28 30 31 29 26 30 30 31 32 32 30 29 29 28 27 26 24 22 21 19 17 15 14 12 11 12 16 18 18 17 16 18
11 13 13 13 13 11 12 13 14 14 13 9 16 11 2 29 27 27 28 28 28 26 30 33 33 32 31 30 30 28 25 25 24 22 22 20 18 16 14 14 13 14 15 16 16 17 16 17 17
7 12 14 12 11 9 16 16 14 12 11 12 11 11 17 28 28 26 27 27 27 28 31 33 34 33 31 30 29 27 25 24 22 21 20 19 17 16 14 14 14 14 16 17 16 16 15 16 18
13 10 11 14 12 10 14 13 17 14 13 5 21 4 13 25 25 25 25 25 27 31 33 33 34 33 32 30 29 27 25 24 22 21 19 19 17 16 15 13 13 15 17 17 17 16 13 14 16
12 10 9 12 13 11 13 14 15 15 16 9 6 9 20 24 25 26 27 27 29 33 35 34 34 34 32 30 28 27 25 24 22 21 20 18 17 16 14 14 13 14 16 17 17 15 13 13 15
11 13 8 14 14 12 13 11 11 14 16 13 14 17 24 24 25 27 27 28 30 35 35 35 34 34 33 31 29 27 25 24 23 22 20 18 17 16 15 14 14 14 15 16 16 15 14 15 14
17 26 19 19 18 8 14 12 14 14 14 15 14 21 24 26 27 28 29 30 34 35 35 35 35 34 33 31 30 28 27 25 23 22 21 19 18 16 15 15 14 14 14 13 15 15 14 13 15
29 24 19 23 20 18 14 13 11 14 11 11 15 22 26 27 28 30 28 30 35 36 36 36 35 34 33 32 30 29 27 26 24 23 22 20 19 18 16 15 15 14 13 13 13 13 14 15 16
16 24 26 25 23 14 11 12 11 10 5 9 15 22 26 29 30 33 33 34 38 37 36 36 35 34 34 33 31 30 28 26 25 24 22 21 20 18 16 15 15 15 13 13 13 15 13 15 14
28 33 28 27 18 8 10 6 17 7 10 8 15 21 25 30 30 35 36 37 38 38 37 36 35 35 34 33 32 30 29 27 26 25 23 22 21 20 18 16 15 14 13 11 12 13 14 14 14
25 26 28 20 12 5 7 7 19 9 10 10 14 20 25 30 32 36 36 38 38 38 37 36 35 35 35 34 33 31 29 28 27 26 24 23 22 21 19 16 14 12 11 11 12 12 12 14 15
29 34 30 26 12 11 3 25 25 8 11 12 18 24 29 30 34 36 37 38 39 38 36 35 35 35 35 34 33 32 30 29 28 26 25 24 23 21 18 16 13 11 11 12 13 13 11 14 15
26 27 32 31 16 13 8 29 22 7 11 16 22 29 31 30 33 37 40 39 39 38 36 33 33 35 34 34 33 32 31 30 29 27 26 25 23 20 17 15 13 11 12 13 13 14 16 16 16
25 29 34 35 28 23 6 29 29 8 14 21 23 31 32 32 33 36 40 41 40 38 35 33 33 34 33 34 34 33 32 31 30 28 26 24 20 18 15 13 12 12 13 13 13 14 15 16 16
35 35 41 37 31 27 22 29 29 13 16 23 23 31 35 34 35 38 39 41 41 39 37 34 34 32 31 32 33 33 32 31 30 28 26 23 17 14 12 12 11 13 14 13 13 14 15 15 16
18 29 17 31 27 29 31 38 27 31 27 14 27 33 38 37 35 37 41 42 42 41 38 36 34 32 31 31 28 31 31 31 30 29 27 23 18 13 12 11 11 12 13 13 13 14 15 15 17
35 28 29 35 36 38 26 38 31 33 26 28 29 31 38 40 38 37 38 41 42 42 40 38 35 32 30 25 25 25 26 26 27 26 25 22 18 13 11 11 12 14 12 13 12 14 15 16 16
38 22 23 31 39 41 39 38 38 26 34 31 30 31 37 40 40 38 38 39 40 40 38 39 37 34 32 28 26 25 27 26 24 23 22 22 18 13 12 12 12 14 13 14 12 13 14 14 15
16 13 16 21 32 49 46 43 44 33 16 36 37 38 38 40 42 40 37 37 39 40 39 37 37 37 32 29 29 27 26 25 22 20 18 19 18 12 13 14 12 12 13 14 13 13 13 14 14
15 11 11 28 42 42 23 46 44 31 34 40 38 39 40 38 41 42 41 35 34 35 36 35 34 37 32 29 27 27 26 23 21 18 18 15 10 9 12 13 9 11 13 14 12 13 12 12 13
23 19 12 14 38 42 34 45 43 41 44 34 40 40 41 43 41 41 43 41 37 34 33 31 30 31 28 26 25 22 22 20 21 17 15 11 9 9 11 13 11 11 10 13 11 12 13 12 12
18 27 19 29 25 31 40 40 41 34 36 32 36 36 36 42 40 38 40 42 42 40 35 32 29 26 25 24 20 19 18 19 19 14 10 9 7 5 9 10 10 10 11 13 13 13 14 13 13
21 16 17 18 35 35 34 38 38 22 25 17 33 40 42 41 40 39 39 38 39 38 34 30 30 32 29 25 23 21 20 20 19 13 14 11 9 8 7 9 10 9 11 12 12 13 13 13 13
25 22 22 18 36 35 35 35 31 39 25 18 24 35 36 36 36 32 30 35 33 30 25 32 30 29 27 26 24 23 24 24 20 17 14 13 12 11 11 11 11 10 12 12 13 14 13 13 11
27 26 25 29 31 46 35 35 25 28 27 28 39 41 37 17 15 13 26 26 19 22 27 27 28 27 28 26 25 25 23 23 24 24 20 15 14 13 13 14 14 14 13 12 14 16 16 14 12
Wind_Direction
100 93 101 119 74 111 77 50 131 113 178 196 177 177 154 180 175 125 198 171 113 114 115 107 111 109 111 100 97 98 110 112 112 109 110 114 119 123 139 161 173 184 167 207 193 159 142 126 108
104 94 115 94 34 24 36 44 74 145 181 166 201 189 200 184 150 112 170 114 115 113 114 110 113 109 105 98 103 116 117 114 111 112 117 131 137 137 142 151 171 174 199 248 297 274 143 157 122
102 119 109 56 17 2 27 25 55 30 206 175 189 221 194 191 70 136 111 118 118 116 113 111 109 106 104 108 119 120 118 118 114 122 135 141 144 143 146 161 172 172 271 269 351 4 141 103 82
101 104 91 74 348 352 308 50 73 61 330 223 30 274 221 225 103 186 117 123 118 116 119 109 106 110 113 123 121 118 119 122 126 137 140 145 145 143 150 160 168 198 267 271 268 109 110 103 107
171 119 346 1 301 312 282 74 81 74 40 50 203 271 227 215 151 112 119 124 121 121 120 117 113 121 126 126 120 117 124 134 143 144 145 152 150 150 158 167 178 208 247 177 144 138 136 133 129
93 96 359 331 326 304 334 67 56 41 30 19 31 68 221 210 110 116 120 123 123 119 124 125 127 129 131 128 121 127 144 151 150 150 151 151 156 166 168 171 182 190 182 151 140 140 145 142 120
43 23 331 306 308 306 10 57 53 40 50 28 85 55 282 159 120 118 120 122 124 121 128 137 141 138 137 136 144 156 167 161 158 157 156 156 165 171 172 172 177 172 163 156 155 148 144 134 119
37 40 314 4 310 276 52 57 44 28 27 65 80 56 105 127 126 121 122 125 127 132 137 143 150 150 150 155 162 168 168 166 166 166 167 169 169 173 173 173 172 168 159 156 157 152 149 136 117
288 343 302 61 254 300 71 34 63 41 64 262 195 317 103 123 124 125 126 127 131 143 151 152 156 160 160 166 169 170 172 173 174 173 175 172 176 176 176 178 177 166 155 152 151 151 152 146 128
293 296 23 25 319 18 87 75 65 43 77 53 318 54 116 127 132 134 137 137 142 152 160 160 163 166 166 173 175 174 177 179 179 180 182 182 185 184 192 191 191 174 161 148 146 147 159 149 137
304 277 315 291 330 53 87 77 59 54 80 90 113 108 129 134 139 143 144 146 148 158 163 166 166 169 169 175 177 181 184 184 184 184 187 189 193 190 193 189 179 180 168 148 141 140 144 136 139
273 224 253 254 275 7 116 92 105 103 25 99 102 127 133 142 146 149 150 152 158 163 166 168 170 172 173 178 180 183 185 188 189 190 193 199 196 197 198 196 188 181 179 172 153 116 129 139 122
224 247 262 229 223 191 123 134 122 134 321 43 93 125 142 146 149 153 151 155 165 171 171 172 172 175 177 181 185 186 191 192 196 199 200 200 199 200 202 206 198 190 200 187 165 139 115 115 105
269 247 240 231 226 137 104 118 113 124 50 57 101 128 144 153 156 161 162 166 174 176 174 174 174 175 181 183 186 189 194 195 198 200 199 196 200 204 204 208 199 185 187 190 168 116 124 100 95
254 233 243 247 277 342 100 48 155 53 107 97 119 135 146 160 162 171 172 175 179 181 177 177 175 179 183 188 191 194 197 200 201 200 199 198 200 199 203 208 198 182 172 160 134 110 97 96 81
256 251 247 262 293 335 105 287 168 118 116 122 131 143 156 165 170 178 179 183 181 180 178 177 179 181 186 190 195 198 201 201 201 201 203 198 194 195 195 189 176 160 167 142 125 132 111 78 68
246 235 245 255 285 300 145 234 220 138 141 145 151 157 167 170 179 180 182 184 186 182 179 178 181 183 188 193 197 200 204 205 204 206 207 204 196 191 184 176 168 152 166 151 137 113 102 68 68
248 248 238 239 272 279 172 213 276 139 160 165 165 171 174 174 178 181 186 187 186 185 179 175 179 184 187 192 200 206 205 205 207 205 204 201 194 186 175 170 161 156 161 142 106 70 56 67 64
254 251 235 224 249 266 201 210 228 146 169 175 169 175 181 183 179 181 188 191 190 187 181 176 178 182 182 189 191 197 197 200 202 204 205 191 177 171 161 155 149 156 163 123 85 74 70 77 87
245 247 225 232 242 258 274 258 249 165 171 175 171 179 187 186 188 188 186 188 189 188 184 180 181 178 178 183 188 196 193 200 201 204 202 183 163 155 149 147 143 144 145 107 95 84 79 89 88
222 195 242 252 255 259 261 237 270 231 202 172 186 190 197 190 185 185 189 190 191 190 186 184 182 181 179 180 176 188 220 221 201 200 198 186 174 161 158 157 149 140 136 133 105 99 99 88 71
198 252 256 256 251 246 264 228 263 219 193 193 188 187 194 195 194 191 187 191 193 195 192 191 186 184 181 174 174 176 180 185 190 191 190 186 181 172 164 158 154 152 133 133 108 103 101 83 85
202 254 256 259 253 252 248 249 225 265 206 199 191 189 194 194 193 190 189 190 192 191 190 192 191 189 187 182 182 182 187 189 188 187 187 190 186 180 177 166 151 151 146 144 118 108 107 94 96
255 251 261 265 261 230 224 233 228 203 247 240 212 203 200 197 197 195 193 192 196 197 194 193 193 194 189 187 189 188 189 189 187 184 183 185 186 179 173 165 154 152 148 148 134 128 114 106 105
194 195 249 258 244 223 263 244 221 249 252 232 224 208 201 194 197 200 198 190 190 190 191 192 191 195 190 190 191 193 194 192 192 189 187 181 173 167 167 163 154 153 155 152 139 135 125 109 103
190 200 240 200 216 238 255 231 242 237 238 244 237 224 220 210 202 200 203 201 194 191 189 187 189 193 192 193 195 197 198 197 196 195 191 189 186 177 170 167 165 162 155 153 143 141 142 130 122
235 200 204 265 277 263 241 239 246 252 249 252 244 234 236 205 202 200 201 203 203 199 193 191 190 191 195 199 205 209 210 205 201 205 218 217 224 211 182 177 175 171 165 159 152 152 152 145 140
245 230 240 206 208 216 247 242 242 255 250 241 245 233 226 217 210 207 204 200 201 199 196 195 195 195 193 193 197 203 206 206 206 220 210 222 239 220 212 194 186 185 174 167 162 159 155 154 152
241 225 248 255 247 219 240 243 249 234 252 233 196 196 201 202 202 197 195 200 197 195 196 197 196 197 197 195 193 194 195 197 203 212 221 231 237 229 218 210 207 204 188 180 175 171 165 167 163
236 240 233 250 254 230 247 246 261 244 256 253 245 242 250 241 205 206 193 196 197 199 196 198 199 198 198 197 197 196 196 195 197 201 205 218 223 226 223 220 213 219 203 194 188 183 180 179 178